Warning: Javascript must be enabled to use all the features on this page!


Page Loading - Please Wait...

* We've detected you're using a mobile device. Find our Next Generation Station Page here.
Click to hideNews Bulletins

Streamflow Measurements for the Nation


USGS 09421500 COLORADO RV BLW HOOVER DAM, AZ-NV


Clark County, Nevada
Hydrologic Unit Code 15030101
Latitude  36°00'55", Longitude 114°44'16" NAD27
Drainage area 171,700  square miles
Gage datum 675.49 feet above NGVD29
Output formats
HTML table with channel data
HTML table without channel data
Tab-separated data with channel data
Tab-separated data without channel data
Graph of data
Reselect output format
Meas.
Number
  Date       Time Time
Datum
Measurement
Used?
  Who Measuring
Agency
Stream
flow
(ft3/s)
Gage
Height
(ft)
GH
Change
(ft)
Meas.
Duration
(hr)
Meas.
Rated
  Control Flow
Adjust.
Code
 
6562023-12-08 11:40:51PSTYesHKC/BAHUSGS2410 FairClearNONE
6552023-12-08 11:38:01PSTYesHKC/BAHUSGS2390 FairClearNONE
6542023-12-08 11:35:25PSTYesHKC/BAHUSGS2140 FairClearNONE
6532023-12-08 11:32:51PSTYesHKC/BAHUSGS2360 FairClearNONE
6522023-12-08 11:30:10PSTYesHKC/BAHUSGS2230 FairClearNONE
6512023-12-08 11:27:29PSTYesHKC/BAHUSGS2440 FairClearNONE
6502023-12-08 11:24:34PSTYesHKC/BAHUSGS2320 FairClearNONE
6492023-12-08 11:21:21PSTYesHKC/BAHUSGS2210 FairClearNONE
6482023-12-08 11:18:29PSTYesHKC/BAHUSGS2430 FairClearNONE
6472023-12-08 11:15:57PSTYesHKC/BAHUSGS2380 FairClearNONE
6462023-12-08 11:13:04PSTYesHKC/BAHUSGS2130 FairClearNONE
6442023-12-08 11:10:17PSTYesHKC/BAHUSGS2210 FairClearNONE
6452023-12-08 11:10:10PSTYesHKC/BAHUSGS2380 FairClearNONE
6432023-12-08 11:08:43PSTYesHKC/BAHUSGS2140 FairClearNONE
6422023-12-08 11:06:56PSTYesHKC/BAHUSGS2150 FairClearNONE
6412023-12-08 11:05:22PSTYesHKC/BAHUSGS2120 FairClearNONE
6402022-11-17 14:16:32PSTYesHD/MHSUSGS2870 PoorClearNONE
6392022-11-17 14:13:11PSTYesHD/MHSUSGS2740 PoorClearNONE
6382022-11-17 14:09:54PSTYesHD/MHSUSGS1970 PoorClearNONE
6372022-11-17 14:04:37PSTYesHD/MHSUSGS1030 PoorClearNONE
6362022-11-17 14:01:25PSTYesHD/MHSUSGS1010 PoorClearNONE
6352022-11-17 13:58:20PSTYesHD/MHSUSGS792 PoorClearNONE
6342022-11-17 13:54:51PSTYesHD/MHSUSGS1020 PoorClearNONE
6332022-11-17 13:51:09PSTYesHD/MHSUSGS746 PoorClearNONE
6322022-11-17 13:47:36PSTYesHD/MHSUSGS790 PoorClearNONE
6312022-11-17 13:43:50PSTYesHD/MHSUSGS896 PoorClearNONE
6302022-11-17 13:40:11PSTYesHD/MHSUSGS859 PoorClearNONE
6292022-11-17 13:36:53PSTYesHD/MHSUSGS706 PoorClearNONE
6282022-11-17 13:33:39PSTYesHD/MHSUSGS822 PoorClearNONE
6272022-11-17 13:30:23PSTYesHD/MHSUSGS783 PoorClearNONE
6262022-11-17 13:26:46PSTYesHD/MHSUSGS868 PoorClearNONE
6252022-11-17 13:23:23PSTYesHD/MHSUSGS936 PoorClearNONE
6242022-11-17 13:20:26PSTYesHD/MHSUSGS998 PoorClearNONE
6212022-11-17 13:17:06PSTYesHD/MHSUSGS992 PoorClearNONE
6202022-11-17 13:13:38PSTYesHD/MHSUSGS1010 PoorClearNONE
6192022-11-17 13:10:19PSTYesHD/MHSUSGS934 PoorClearNONE
6182022-11-17 13:06:50PSTYesHD/MHSUSGS1290 PoorClearNONE
6232022-11-17 13:03:20PSTYesHD/MHSUSGS1230 PoorClearNONE
6172022-11-17 12:59:59PSTYesHD/MHSUSGS1480 PoorClearNONE
6222022-11-17 12:56:26PSTYesHD/MHSUSGS1450 PoorClearNONE
6162022-11-17 12:52:33PSTYesHD/MHSUSGS1520 PoorClearNONE
6152022-11-17 12:48:29PSTYesHD/MHSUSGS1270 PoorClearNONE
6142022-11-17 12:44:41PSTYesHD/MHSUSGS1360 PoorClearNONE
6132022-11-17 12:40:41PSTYesHD/MHSUSGS1330 PoorClearNONE
6122022-11-17 12:37:06PSTYesHD/MHSUSGS1360 PoorClearNONE
6112022-11-17 12:33:23PSTYesHD/MHSUSGS1440 PoorClearNONE
6102022-11-17 12:29:57PSTYesHD/MHSUSGS1310 PoorClearNONE
6092022-11-17 12:26:34PSTYesHD/MHSUSGS1250 PoorClearNONE
6082022-07-20 16:43:22PDTYesSKP/HD/LMCUSGS23600 PoorClearNONE
6072022-07-20 16:36:44PDTYesSKP/HD/LMCUSGS23200 PoorClearNONE
6062022-07-20 16:30:15PDTYesSKP/HD/LMCUSGS23000 PoorClearNONE
6052022-07-20 16:16:03PDTYesSKP/HD/LMCUSGS23500 PoorClearNONE
6042022-07-20 16:09:41PDTYesSKP/HD/LMCUSGS20300 PoorClearNONE
6032022-07-20 16:02:49PDTYesSKP/HD/LMCUSGS18900 PoorClearNONE
6022022-07-20 15:55:15PDTYesSKP/HD/LMCUSGS16400 PoorClearNONE
6012022-07-20 15:47:20PDTYesSKP/HD/LMCUSGS15100 PoorClearNONE
6002022-07-20 15:39:37PDTYesSKP/HD/LMCUSGS14600 PoorClearNONE
5992022-07-20 15:31:40PDTYesSKP/HD/LMCUSGS14600 PoorClearNONE
5982022-07-20 15:23:33PDTYesSKP/HD/LMCUSGS14600 PoorClearNONE
5972022-07-20 15:14:38PDTYesSKP/HD/LMCUSGS14500 PoorClearNONE
5962022-07-20 15:05:24PDTYesSKP/HD/LMCUSGS14900 PoorClearNONE
5952022-07-20 14:56:18PDTYesSKP/HD/LMCUSGS14400 PoorClearNONE
5942022-07-20 13:07:52PDTYesSKP/HD/LMCUSGS1090046.770.380.30PoorClearNONE
5932022-07-20 12:58:05PDTYesSKP/HD/LMCUSGS1200046.950.080.20PoorClearNONE
5922022-07-20 12:47:39PDTYesSKP/HD/LMCUSGS1170046.980.050.25PoorClearNONE
5912022-07-20 12:36:56PDTYesSKP/HD/LMCUSGS1230047.000.030.25PoorClearNONE
5902022-07-20 12:24:07PDTYesSKP/HD/LMCUSGS1090046.960.050.25PoorClearNONE
5892021-09-14 15:21:13PDTYesMAK/HD/SPUSGS14600 Poor NONE
5882021-09-14 15:17:28PDTYesMAK/HD/SPUSGS15600 Poor NONE
5872021-09-14 15:13:41PDTYesMAK/HD/SPUSGS14400 Poor NONE
5862021-09-14 15:09:55PDTYesMAK/HD/SPUSGS15800 Poor NONE
5852021-09-14 15:06:01PDTYesMAK/HD/SPUSGS16800 Poor NONE
5842021-09-14 15:02:22PDTYesMAK/HD/SPUSGS17800 Poor NONE
5832021-09-14 14:59:20PDTYesMAK/HD/SPUSGS17400 Poor NONE
5822021-09-14 14:56:02PDTYesMAK/HD/SPUSGS17800 Poor NONE
5812021-09-14 14:52:23PDTYesMAK/HD/SPUSGS17600 Poor NONE
5802021-09-14 14:48:25PDTYesMAK/HD/SPUSGS17200 Poor NONE
5792021-09-14 14:45:13PDTYesMAK/HD/SPUSGS17200 Poor NONE
5782021-09-14 14:41:17PDTYesMAK/HD/SPUSGS16700 Poor NONE
5772021-09-14 14:37:15PDTYesMAK/HD/SPUSGS16400 Poor NONE
5762021-09-14 14:32:57PDTYesMAK/HD/SPUSGS15000 Poor NONE
5752021-09-14 14:28:51PDTYesMAK/HD/SPUSGS15300 Poor NONE
5742021-09-14 13:49:38PDTYesMAK/HD/SPUSGS11000 Poor NONE
5732021-09-14 13:46:49PDTYesMAK/HD/SPUSGS11500 Poor NONE
5722021-09-14 13:37:48PDTYesMAK/HD/SPUSGS11400 Poor NONE
5712021-09-14 13:34:28PDTYesMAK/HD/SPUSGS11100 Poor NONE
5702021-09-14 13:31:11PDTYesMAK/HD/SPUSGS11200 Poor NONE
5692021-09-14 13:27:36PDTYesMAK/HD/SPUSGS11500 Poor NONE
5682021-09-14 13:23:50PDTYesMAK/HD/SPUSGS11200 Poor NONE
5672021-09-14 13:20:15PDTYesMAK/HD/SPUSGS10500 Poor NONE
5662021-09-14 13:14:16PDTYesMAK/HD/SPUSGS9220 Poor NONE
5652021-09-14 13:10:57PDTYesMAK/HD/SPUSGS7790 Poor NONE
5642021-09-14 13:07:13PDTYesMAK/HD/SPUSGS7040 Poor NONE
5632021-09-14 13:03:49PDTYesMAK/HD/SPUSGS6780 Poor NONE
5622021-09-14 13:00:23PDTYesMAK/HD/SPUSGS6670 Poor NONE
5612021-09-14 12:56:50PDTYesMAK/HD/SPUSGS6150 Poor OTHR
5602021-09-14 12:52:54PDTYesMAK/HD/SPUSGS5600 Poor NONE
5592021-09-14 12:48:30PDTYesMAK/HD/SPUSGS4760 Poor NONE
5582021-09-14 12:06:55PDTYesMAK/HD/SPUSGS3920 Poor NONE
5572021-09-14 12:03:08PDTYesMAK/HD/SPUSGS3700 Poor NONE
5562021-09-14 11:59:26PDTYesMAK/HD/SPUSGS3460 Poor NONE
5552021-09-14 11:55:50PDTYesMAK/HD/SPUSGS3430 Poor NONE
5542021-09-14 11:51:57PDTYesMAK/HD/SPUSGS3220 Poor NONE
5532021-09-14 11:48:04PDTYesMAK/HD/SPUSGS3360 Poor NONE
5522021-09-14 11:44:38PDTYesMAK/HD/SPUSGS3160 Poor NONE
5512021-09-14 11:41:05PDTYesMAK/HD/SPUSGS3220 Poor NONE
5502021-09-14 10:38:15PDTYesMAK/HD/SPUSGS2400 Poor NONE
5492021-09-14 10:34:42PDTYesMAK/HD/SPUSGS2160 Poor NONE
5482021-09-14 10:30:29PDTYesMAK/HD/SPUSGS2100 Poor NONE
5472021-09-14 10:27:05PDTYesMAK/HD/SPUSGS2230 Poor NONE
5462021-09-14 10:23:48PDTYesMAK/HD/SPUSGS2380 Poor NONE
5452021-09-14 10:19:50PDTYesMAK/HD/SPUSGS1910 Poor NONE
5442021-09-14 10:08:36PDTYesMAK/HD/SPUSGS880 Poor NONE
5432021-09-14 10:05:22PDTYesMAK/HD/SPUSGS1090 Poor NONE
5422021-09-14 10:02:13PDTYesMAK/HD/SPUSGS1280 Poor NONE
5412021-09-14 09:57:18PDTYesMAK/HD/SPUSGS1550 Poor NONE
5402016-05-12 13:29:37PDTYesKJE/CMMUSGS2650050.870.340.20PoorClearNONE
5392016-05-12 12:23:07PDTYesKJE/CMMUSGS1750048.950.310.10PoorClearNONE
5382015-11-19 12:27:01PSTYesCMM/DJRUSGS925042.340.670.10PoorClearNONE
5372015-11-19 11:34:30PSTYesCMM/DJRUSGS322038.980.390.10PoorClearNONE
5362015-03-19 11:53:40PDTYesCMMUSGS2050049.140.300.20PoorClearNONE
5352015-03-19 11:01:36PDTYesCMMUSGS2120049.05 PoorClearNONE
5342014-07-29 12:17:17PDTYesCMMUSGS1160046.730.080.30FairUnspecifedNONE
5332014-07-29 10:49:13PDTYesCMMUSGS1420047.210.150.30PoorUnspecifedNONE
5322014-03-14 12:45PDTYesCMMUSGS1280047.140.180.20PoorUnspecifedNONE
5312014-03-14 11:39:30PDTYesCMMUSGS1480047.800.150.20PoorUnspecifedNONE
5302013-12-20 12:45PSTYesCMMUSGS414042.280.060.10PoorUnspecifedNONE
5292013-12-20 11:34PSTYesCMMUSGS828044.580.330.10PoorUnspecifedNONE
5282013-09-18 12:19:30PDTYesCMMUSGS837046.860.040.10FairUnspecifedNONE
5272013-09-18 11:17PDTYesCMMUSGS602046.630.020.10FairUnspecifedNONE
5262013-07-25 13:54:30PDTYesCMMUSGS3880054.430.230.20GoodUnspecifedNONE
5252013-07-25 12:08PDTYesCMMUSGS2330050.220.090.10PoorUnspecifedNONE
5242013-03-20 12:56:30PDTYesJAA/CMMUSGS1750048.310.010.10PoorUnspecifedNONE
5232013-03-20 11:54:30PDTYesJAA/CMMUSGS1790048.390.120.20FairUnspecifedNONE
5222012-11-29 11:42:30PSTYesjaa,cseUSGS12700 FairClearNONE
5212012-06-22 13:01:30PDTYesjaa,tdcUSGS2870051.400.250.10PoorClearNONE
5202012-06-22 11:48PDTYesjaa,tdcUSGS2730051.140.120.10PoorClearNONE
5192012-02-17 13:36:29PSTYesJAA/TDCUSGS1610046.98-0.160.20FairClearNONE
5182012-02-17 12:24:19PSTYesJAA/TDCUSGS1650047.110.070.10PoorClearNONE
5172011-12-16 13:06:30PSTYesMER/CSEUSGS157038.06-0.030.10PoorVegetationModerateNONE
5162011-12-16 11:48PSTYesMER/CSEUSGS285039.26-0.040.10PoorVegetationModerateNONE
5152011-08-17 12:19:30PDTYesMERUSGS1400047.56-0.550.10PoorClearNONE
5142011-08-17 11:08PDTYesMERUSGS1580047.100.120.10PoorClearNONE
5132011-07-27 12:53:30PDTYesMERUSGS2280049.230.100.10PoorClearNONE
5122011-07-27 11:33:21PDTYesMERUSGS1770047.650.120.10FairClearNONE
5112011-06-30 12:31PDTYesMERUSGS2160049.49 FairClearNONE
5102011-06-30 11:03:30PDTYesMERUSGS1490048.06 FairClearNONE
5092011-02-04 11:52PSTYesMERUSGS818045.24-0.010.20FairClearNONE
5082010-07-29 11:55:14PDTYesJMA/JAAUSGS2650051.170.071.00FairClearNONE
5072010-06-08 11:49PDTYesJMA/JAAUSGS1970048.190.200.10FairClearNONE
5062010-06-08 11:47PDTYesJMA/JAAUSGS1940048.110.300.20FairClearNONE
5052010-06-08 11:37PDTYesJMA/JAAUSGS1650047.590.740.20FairClearNONE
5042010-06-08 11:35PDTYesJMA/JAAUSGS1730047.440.670.20FairClearNONE
5032010-06-08 11:25PDTYesJMA/JAAUSGS1490046.880.480.20FairClearNONE
5022010-06-08 11:13PDTYesJMA/JAAUSGS1330046.360.550.20FairClearNONE
5012010-04-14 11:00PDTYesJMAUSGS2000048.370.900.80PoorClearNONE
5002010-01-07 13:11PSTYesJMA/JAAUSGS1380046.600.420.30PoorClearNONE
4992010-01-07 12:32PSTYesJMA/JAAUSGS1450047.12-0.420.30PoorClearNONE
4982010-01-07 12:07PSTYesJMA/JAAUSGS1600047.55-0.490.30PoorClearNONE
4972010-01-06 11:03PSTYesJMA/JAAUSGS1280046.160.300.50Fair NONE
4962009-11-12 10:48PSTYesJMA/JAAUSGS934043.270.700.80Fair NONE
4952009-08-27 11:43PDTYesRMS/SLCUSGS1460046.21 Fair NONE
4942009-08-27 11:32PDTYesRMS/SLCUSGS1400045.85 Fair NONE
4932009-05-27 11:30PDTYesRMS/TDCUSGS3150050.85 Fair NONE
4922008-11-19 09:30PSTYesrmsUSGS2050047.40 Unspecified NONE
4912008-08-21 11:15PDTYesRMS/DMWUSGS2370048.41 UnspecifiedClearNONE
4892008-05-28 12:18PDTYesRMS/JMAUSGS2420050.35 FairClearNONE
4902008-03-27 11:37:30PDTYesRMS/JMAUSGS3230051.66 0.40PoorClearNONE
4882008-02-13 10:23PSTYesRMS/CSSUSGS14100 FairClearNONE
4872007-11-28 10:44PSTYesRMS/DMWUSGS0.00 Unspecified NONE
4862007-09-18 10:00PDTYesRMS/TWOUSGS8390 FairClearNONE
4852007-09-11 11:00PDTYesRMS/JSUSGS10800 FairClearNONE
4842007-08-29 11:47PDTYesRMS/TWOUSGS761013.680.590.10FairClearNONE
4832007-06-27 14:39PDTYesRMS/TWOUSGS3110019.62 FairClearNONE
4822007-04-19 12:51PDTYesRMS/TWOUSGS1810017.16 FairClearNONE
4812007-02-28 13:30PSTYesrms/jaaUSGS935012.67 FairClearNONE
4802006-12-27 12:30PSTYesah/lgUSGS60908.65 Fair NONE
4792006-11-16 12:56PSTYesah/lgUSGS1320012.78 Fair NONE
4782006-08-28 12:35PDTYesah/lgUSGS2270017.57 Fair NONE
4772006-07-14 15:41PDTYesah/lgUSGS3140018.41 Fair NONE
4762006-03-24 13:38PSTYesah/lgUSGS1620015.35 Fair NONE
4752006-03-02 12:15PSTYesAH /LRGUSGS1880015.540.310.50GoodClearNONE
4742005-11-29 10:30PSTYesAH /LRGUSGS944011.980.140.50FairClearNONE
4732005-09-08 14:00PDTYesAH / LBUSGS2870018.060.780.50GoodClearNONE
4722005-08-17 10:00PDTYesAH / LGUSGS1130014.241.581.50FairClearNONE
4712005-03-21 12:49PSTYesAH / RRUSGS658012.80 GoodClearNONE
4702004-06-17 11:14PDTYesDJTUSGS14900 FairClearNONE
4692004-06-17 10:53PDTYesDJTUSGS30300 PoorClearNONE
4682004-05-24 10:45PDTYesDJT/RHMUSGS2150044.95-0.16 PoorClearNONE
4672004-05-24 10:25PDTYesDJT/RHMUSGS1750044.650.28 FairClearNONE
4662004-05-24 10:13PDTYesDJT/RHMUSGS1440044.59-0.10 FairClearNONE
4652004-03-03 12:00PSTYesDJT/RHMUSGS740044.98-0.110.50FairClearNONE
4642003-11-25 11:23PSTYesDJT/RHMUSGS620040.70-0.600.30FairClearNONE
4632003-11-25 11:05PSTYesDJT/RHMUSGS575042.04-0.950.20FairClearNONE
4622003-09-22 11:28PDTYesDJT/RSKUSGS960042.750.590.30GoodClearNONE
4612003-09-22 11:16PDTYesDJT/RSKUSGS763042.390.360.30GoodClearNONE
4602003-09-22 11:05PDTYesDJT/RKUSGS604042.180.060.30GoodClearNONE
4592003-09-04 11:40PDTYesDJT/GGUSGS710044.040.080.20FairClearNONE
4582003-06-30 10:55PDTYesDJT/RHMUSGS1320044.680.290.30FairClearNONE
4572003-06-30 10:42PDTYesDJT/RHMUSGS1160044.420.140.30FairClearNONE
4562003-04-30 11:18PDTYesDJT/RHMUSGS1680045.96-0.090.30GoodClearNONE
4552003-04-30 11:06PDTYesDJT/RHMUSGS2080046.40-0.790.30GoodClearNONE
4542003-03-20 11:33PSTYesDJTUSGS2660047.800.090.30GoodClearNONE
4532002-08-29 09:15PDTYesDJTUSGS1550045.130.090.10FairClearNONE
4522002-08-29 09:06PDTYesDJTUSGS1450045.040.080.10FairClearNONE
4512002-08-19 10:04PDTYesDJTUSGS888044.140.050.20FairClearNONE
4502002-08-19 09:42PDTYesDJTUSGS1220044.44-0.700.20FairClearNONE
4492002-05-23 11:01PDTYesDJT/RRUSGS2800049.96-0.200.50GoodClearNONE
4482002-02-22 10:42PSTYesDJT/RLKUSGS2740048.34-0.120.30GoodClearNONE
4472002-02-22 10:13PSTYesDJT/RLKUSGS2840048.200.400.60GoodClearNONE
4462001-12-04 11:51PSTYesRLK/DJTUSGS777039.920.250.40ExcellentClearNONE
4452001-12-04 11:38PSTYesRLK/DJTUSGS679039.680.250.20ExcellentClearNONE
4442001-12-04 11:13PSTYesRLK/DJTUSGS611039.64-0.170.20ExcellentClearNONE
4432001-11-01 11:39PSTYesRLK/DJTUSGS1780044.12 GoodClearNONE
4422001-11-01 11:30PSTYesRLK/DJTUSGS1630043.90 GoodClearNONE
4412001-11-01 11:17PSTYesRLK/DJTUSGS1550043.83 GoodClearNONE
4402001-11-01 11:09PSTYesRLK/DJTUSGS1690044.10 GoodClearNONE
4392001-11-01 11:04PSTYesRLK/DJTUSGS1820044.37 GoodClearNONE
4382001-11-01 10:59PSTYesRLK/DJTUSGS2030044.64 GoodClearNONE
4372001-11-01 10:54PSTYesRLK/DJTUSGS2250045.28 GoodClearNONE
4362001-08-30 11:42PDTYesRLK/DJTUSGS1940045.82 GoodClearNONE
4352001-08-30 11:24PDTYesRLK/DJTUSGS1800045.28 GoodClearNONE
4342001-08-30 11:11PDTYesRLK/DJTUSGS1700044.89 GoodClearNONE
4332001-08-30 11:02PDTYesRLK/DJTUSGS1580044.30 GoodClearNONE
4322001-08-30 10:50PDTYesRLK/DJTUSGS1330043.68 GoodClearNONE
4312001-06-07 11:12PDTYesRLK/DJTUSGS3420050.39-0.150.20GoodClearNONE
4302001-04-19 11:12PDTYesDJT/RSKUSGS3210052.010.690.50GoodClearNONE
4292001-04-06 11:23PDTYesDJT/RLKUSGS3970051.860.511.00GoodClearNONE
4282000-12-15 10:48PSTYesRLK/DJTUSGS1500044.78 GoodClearNONE
4272000-12-15 10:43PSTYesRLK/DJTUSGS1690045.26 GoodClearNONE
4262000-12-15 10:38PSTYesRLK/DJTUSGS1800045.50 GoodClearNONE
4252000-12-15 10:32PSTYesRLK/DJTUSGS1830045.50 GoodClearNONE
4242000-12-15 10:28PSTYesRLK/DJTUSGS1780045.46 GoodClearNONE
4232000-12-15 10:22PSTYesRLK/DJTUSGS1880045.54 GoodClearNONE
4222000-12-15 10:17PSTYesRLK/DJTUSGS1770045.59 GoodClearNONE
4212000-12-15 10:11PSTYesRLK/DJTUSGS1840045.57 GoodClearNONE
4202000-12-15 10:06PSTYesRLK/DJTUSGS1700045.47 GoodClearNONE
4192000-12-15 09:59PSTYesRLK/DJTUSGS1800045.50 GoodClearNONE
4182000-12-15 09:54PSTYesRLK/DJTUSGS1790045.56 GoodClearNONE
4172000-12-15 09:48PSTYesRLK/DJTUSGS1840045.59 GoodClearNONE
4162000-12-15 09:42PSTYesRLK/DJTUSGS1820045.64 GoodClearNONE
4152000-12-15 09:35PSTYesRLK/DJTUSGS1810045.76 GoodClearNONE
4142000-12-15 09:30PSTYesRLK/DJTUSGS1840045.83 GoodClearNONE
4132000-12-15 09:24PSTYesRLK/DJTUSGS2010045.87 GoodClearNONE
4122000-12-15 09:19PSTYesRLK/DJTUSGS1960045.89 GoodClearNONE
4112000-12-15 09:14PSTYesRLK/DJTUSGS2010045.88 GoodClearNONE
4102000-12-15 09:10PSTYesRLK/DJTUSGS1950045.83 GoodClearNONE
4092000-12-15 09:05PSTYesRLK/DJTUSGS1940045.75 GoodClearNONE
4082000-12-14 12:56PSTYesRLK/DJTUSGS490039.78 GoodClearNONE
4072000-12-14 12:50PSTYesRLK/DJTUSGS554039.79 GoodClearNONE
4062000-12-14 12:44PSTYesRLK/DJTUSGS531039.76 GoodClearNONE
4052000-12-14 12:39PSTYesRLK/DJTUSGS513039.71 GoodClearNONE
4042000-12-14 12:34PSTYesRLK/DJTUSGS522039.61 GoodClearNONE
4032000-12-14 12:29PSTYesRLK/DJTUSGS433039.48 GoodClearNONE
4022000-12-14 12:23PSTYesRLK/DJTUSGS437039.54 GoodClearNONE
4012000-12-14 12:16PSTYesRLK/DJTUSGS447039.66 GoodClearNONE
4002000-12-14 12:11PSTYesRLK/DJTUSGS502039.91 GoodClearNONE
3992000-12-14 12:04PSTYesRLK/DJTUSGS508039.95 GoodClearNONE
3982000-12-14 11:58PSTYesRLK/DJTUSGS520039.99 GoodClearNONE
3972000-12-14 11:50PSTYesRLK/DJTUSGS550040.01 GoodClearNONE
3962000-12-14 11:44PSTYesRLK/DJTUSGS455040.08 GoodClearNONE
3952000-12-14 11:36PSTYesRLK/DJTUSGS566040.48 GoodClearNONE
3942000-12-14 11:29PSTYesRLK/DJTUSGS696040.77 GoodClearNONE
3932000-12-14 11:21PSTYesRLK/DJTUSGS679040.80 GoodClearNONE
3922000-12-14 11:13PSTYesRLK/DJTUSGS757040.53 GoodClearNONE
3912000-12-14 11:05PSTYesRLK/DJTUSGS577040.31 GoodClearNONE
3902000-12-14 10:57PSTYesRLK/DJTUSGS477040.42 GoodClearNONE
3892000-12-14 10:49PSTYesRLK/DJTUSGS587040.71 GoodClearNONE
3882000-12-14 10:44PSTYesRLK/DJTUSGS706041.10 GoodClearNONE
3872000-12-14 10:37PSTYesRLK/DJTUSGS726041.23 GoodClearNONE
3862000-12-14 10:30PSTYesRLK/DJTUSGS801041.28 GoodClearNONE
3852000-12-14 10:24PSTYesRLK/DJTUSGS808041.30 GoodClearNONE
3842000-12-14 10:18PSTYesRLK/DJTUSGS792041.24 GoodClearNONE
3832000-12-14 10:13PSTYesRLK/DJTUSGS768041.14 GoodClearNONE
3822000-12-14 10:07PSTYesRLK/DJTUSGS709040.99 GoodClearNONE
3812000-12-14 10:01PSTYesRLK/DJTUSGS643040.92 GoodClearNONE
3802000-12-14 09:56PSTYesRLK/DJTUSGS552041.09 GoodClearNONE
3792000-12-14 09:49PSTYesRLK/DJTUSGS670041.48 GoodClearNONE
3782000-12-14 09:44PSTYesRLK/DJTUSGS791041.87 GoodClearNONE
3772000-12-14 09:39PSTYesRLK/DJTUSGS913042.21 GoodClearNONE
3762000-12-14 09:34PSTYesRLK/DJTUSGS1020042.48 GoodClearNONE
3752000-12-14 09:29PSTYesrlk/djtUSGS1090042.66 GoodClearNONE
3742000-12-13 14:17PSTYesRLK/DJTUSGS1240043.19 GoodClearNONE
3732000-12-13 14:11PSTYesRLK/DJTUSGS1230043.12 GoodClearNONE
3722000-12-13 14:07PSTYesRLK/DJTUSGS1150043.08 GoodClearNONE
3712000-12-13 14:01PSTYesRLK/DJTUSGS1160043.10 GoodClearNONE
3702000-12-13 13:56PSTYesRLK/DJTUSGS1280043.06 GoodClearNONE
3692000-12-13 13:51PSTYesRLK/DJTUSGS1220042.92 GoodClearNONE
3682000-12-13 13:45PSTYesRLK/DJTUSGS1190042.93 GoodClearNONE
3672000-12-13 13:39PSTYesRLK/DJTUSGS1180043.03 GoodClearNONE
3662000-12-13 13:34PSTYesRLK/DJTUSGS1150043.12 GoodClearNONE
3652000-12-13 13:29PSTYesRLK/DJTUSGS1230043.22 GoodClearNONE
3642000-12-13 13:24PSTYesRLK/DJTUSGS1210043.24 GoodClearNONE
3632000-12-13 13:19PSTYesRLK/DJTUSGS1210043.26 GoodClearNONE
3622000-12-13 13:14PSTYesRLK/DJTUSGS1220043.26 GoodClearNONE
3612000-12-13 13:09PSTYesRLK/DJTUSGS1210043.26 GoodClearNONE
3602000-12-13 13:04PSTYesRLK/DJTUSGS1170043.34 GoodClearNONE
3592000-12-13 12:58PSTYesRLK/DJTUSGS1190043.45 GoodClearNONE
3582000-12-13 12:51PSTYesRLK/DJTUSGS1280043.73 GoodClearNONE
3572000-12-13 12:45PSTYesRLK/DJTUSGS1350043.92 GoodClearNONE
3562000-12-13 12:40PSTYesRLK/DJTUSGS1320044.02 GoodClearNONE
3552000-12-13 12:35PSTYesRLK/DJTUSGS1390044.12 GoodClearNONE
3542000-12-13 12:31PSTYesRLK/DJTUSGS1360044.23 GoodClearNONE
3532000-12-13 12:26PSTYesRLK/DJTUSGS1450044.36 GoodClearNONE
3522000-12-13 12:21PSTYesRLK/DJTUSGS1390044.48 GoodClearNONE
3512000-12-13 12:16PSTYesRLK/DJTUSGS1470044.61 GoodClearNONE
3502000-12-13 12:11PSTYesRLK/DJTUSGS1460044.79 GoodClearNONE
3492000-12-13 11:57PSTYesRLK/DJTUSGS1650045.34 GoodClearNONE
3482000-12-13 11:52PSTYesRLK/DJTUSGS1690045.56 GoodClearNONE
3472000-12-13 11:47PSTYesRLK/DJTUSGS1790045.70 GoodClearNONE
3462000-12-13 11:42PSTYesRLK/DJTUSGS1780045.79 GoodClearNONE
3452000-12-13 11:37PSTYesRLK/DJTUSGS1850045.86 GoodClearNONE
3442000-12-13 11:32PSTYesRLK/DJTUSGS1880045.95 GoodClearNONE
3432000-12-13 11:27PSTYesRLK/DJTUSGS1820046.06 GoodClearNONE
3422000-12-13 11:23PSTYesRLK/DJTUSGS1880046.18 GoodClearNONE
3412000-12-13 11:19PSTYesRLK/DJTUSGS2050046.25 GoodClearNONE
3402000-12-13 11:15PSTYesDJT/RLKUSGS2040046.40 GoodClearNONE
3392000-12-13 11:09PSTYesrlkUSGS2180046.52 GoodClearNONE
3382000-12-13 11:04PSTYesRLK/DJTUSGS2120046.48 GoodClearNONE
3372000-12-13 11:00PSTYesRLK/DJTUSGS2020046.44 GoodClearNONE
3362000-12-13 10:54PSTYesRLK/DJTUSGS1940046.54 GoodClearNONE
3352000-12-13 10:49PSTYesRLK/DJTUSGS2150046.65 GoodClearNONE
3342000-12-12 13:54PSTYesRLK/DJTUSGS1350043.74 GoodClearNONE
3332000-12-12 13:49PSTYesRLK/DJTUSGS1500043.80 GoodClearNONE
3322000-12-12 13:44PSTYesRLK/DJTUSGS1480043.77 GoodClearNONE
3312000-12-12 13:37PSTYesRLK/DJTUSGS1410043.82 GoodClearNONE
3302000-12-12 13:33PSTYesRLK/DJTUSGS1420043.90 GoodClearNONE
3292000-12-12 13:26PSTYesRLK/DJTUSGS1510043.87 GoodClearNONE
3282000-12-12 13:08PSTYesRLK/DJTUSGS1170042.84 GoodClearNONE
3272000-12-12 13:01PSTYesRLK/DJTUSGS1110042.91 GoodClearNONE
3262000-12-12 12:54PSTYesRLK/DJTUSGS1160043.10 GoodClearNONE
3252000-12-12 12:48PSTYesRLK/DJTUSGS1220043.33 GoodClearNONE
3242000-12-12 12:42PSTYesRLK/DJTUSGS1210043.40 GoodClearNONE
3232000-12-12 12:35PSTYesRLK/DJTUSGS1190043.50 GoodClearNONE
3222000-12-12 12:30PSTYesRLK/DJTUSGS1250043.60 GoodClearNONE
3212000-12-12 12:25PSTYesRLK/DJTUSGS1300043.70 GoodClearNONE
3202000-12-12 12:00PSTYesRLK/DJTUSGS1640044.20 GoodClearNONE
3192000-12-12 11:52PSTYesRLK/DJTUSGS1450044.19 GoodClearNONE
3182000-12-12 11:46PSTYesRLK/DJTUSGS1410044.48 GoodClearNONE
3172000-12-12 11:37PSTYesRLK/DJTUSGS1420044.62 GoodClearNONE
3162000-12-12 11:32PSTYesRLK/DJTUSGS1410044.76 GoodClearNONE
3152000-12-12 11:24PSTYesDJT/RLKUSGS1410045.16 GoodClearNONE
3142000-12-12 11:20PSTYesRLK/DJTUSGS1530045.48 GoodClearNONE
3132000-12-12 11:14PSTYesRLK/DJTUSGS1520045.81 GoodClearNONE
3122000-12-12 11:08PSTYesRLK/DJTUSGS1680046.59 GoodClearNONE
3112000-12-11 14:07PSTYesRLK/DJTUSGS19100 GoodClearNONE
3102000-12-11 13:59PSTYesRLK/DJTUSGS19100 GoodClearNONE
3092000-12-11 13:48PSTYesRLK/DJTUSGS19800 GoodClearNONE
3082000-12-11 13:40PSTYesRLK/DJTUSGS18900 GoodClearNONE
3072000-12-11 12:37PSTYesRLK/DJTUSGS18500 GoodClearNONE
3062000-12-11 12:32PSTYesRLK/DJTUSGS18000 GoodClearNONE
3052000-12-11 12:22PSTYesRLK/DJTUSGS17700 GoodClearNONE
3042000-12-11 12:17PSTYesRLK/DJTUSGS16200 GoodClearNONE
3031989-08-09 11:00PDTYesRLM/DASUSGS2130039.430.002.20FairClearNONE
3021988-03-28 12:20PSTYesDJB/RJSUSGS1960047.90 FairClearNONE
3011987-03-31 12:25PSTYesDAB/DEHUSGS2530051.240.071.70GoodClearNONE
3001986-03-12 10:45PSTYesCLW/RCUSGS3660051.940.142.00ExcellentClearNONE
2991985-05-23 12:30PDTYesRLC/CLWUSGS3720053.09-0.031.50GoodClearNONE
2981984-06-14 -- ----YesRCUSGS3930052.650.162.20GoodClearNONE
2971983-11-17 -- ----YesRLC/OMMUSGS3460051.420.031.20GoodClearNONE
2961983-06-23 -- ----YesRCUSGS3980055.370.111.50GoodClearNONE
2951983-06-01 -- ----YesRCUSGS3260051.460.041.20GoodClearNONE
2941983-02-14 -- ----YesRCUSGS503045.580.031.20GoodClearNONE
2931982-05-05 -- ----YesRCUSGS2300048.990.551.30GoodClearNONE
2921982-01-20 -- ----YesRCUSGS1930047.32-0.601.80GoodClearNONE
2911981-08-12 -- ----YesWCWUSGS3190050.160.331.30GoodClearNONE